Location: Charlotte
(35.2270°N, 80.8430°W)
Time: 08:14:09
(UTC-05:00)

Daily predictions for brighter satellites

Satellite Brightness Start Highest point End
(mag) Time Altitude Azimuth Time Altitude Azimuth Time Altitude Azimuth
Hubble Space Telescope 3.6 18:06:59 10° SW 18:08:55 13° SSW 18:10:51 10° S
Cosmos 1844 Rocket 3.3 18:04:17 10° NNW 18:09:53 64° WSW 18:15:25 10° S
OTV 4 0.7 18:12:48 10° WNW 18:15:45 65° SSW 18:18:40 10° ESE
CZ-2C R/B 3.3 18:11:17 10° S 18:16:10 54° W 18:20:57 10° NNW
CENTAUR R/B 4.3 18:11:15 10° W 18:16:16 26° NW 18:21:48 10° N
Meteor 1-28 Rocket 3.8 18:13:19 10° NNE 18:16:46 36° E 18:20:12 10° SSE
Cosmos 1125 Rocket 3.4 18:12:26 10° NNW 18:17:38 73° ENE 18:22:48 10° SSE
YAOGAN 1 3.0 18:13:24 10° S 18:17:41 68° WSW 18:22:01 10° NNW
Meteor 2-10 4.3 18:13:59 10° N 18:18:55 46° ENE 18:23:57 10° SSE
COSMO-SKYMED 1 2.5 18:17:02 10° NNE 18:21:22 68° ESE 18:25:40 10° S
SPOT 3 Rocket 4.2 18:19:52 10° S 18:24:56 61° WSW 18:30:03 10° NNW
MSX 4.1 18:19:40 10° S 18:25:22 74° WSW 18:31:07 10° NNW
Thor Agena Rocket 4.4 18:20:55 10° N 18:26:00 53° WNW 18:30:59 10° SSW
Resurs 01 Rocket 3.4 18:26:17 12° ENE 18:26:22 12° ENE 18:28:09 10° NE
Meteor 1-11 4.2 18:22:32 10° S 18:28:11 80° E 18:33:56 10° N
Cosmos 1666 Rocket 4.4 18:24:45 10° SSE 18:28:29 29° E 18:32:15 10° NNE
Cosmos 1980 4.5 18:24:01 10° SW 18:29:33 54° WNW 18:35:08 10° NNE
Lacrosse 5 rocket 1.7 18:26:54 10° NNW 18:30:31 39° NE 18:34:18 10° ESE
Cosmos 1184 Rocket 4.2 18:29:22 10° SE 18:31:54 20° E 18:33:17 16° ENE
Cosmos 1538 Rocket 4.3 18:29:26 10° S 18:34:27 46° ESE 18:39:33 10° NNE
Cosmos 2151 3.6 18:30:44 10° SSW 18:34:52 59° W 18:39:02 10° N
Iridium 4 Rocket 4.4 18:34:36 10° SE 18:37:54 20° E 18:39:48 15° NE
Cosmos 2279 Rocket 3.9 18:35:50 10° N 18:42:04 78° E 18:48:17 10° S
CZ-4 R/B 4.4 18:41:26 10° SW 18:44:13 19° W 18:47:00 10° NW
ALOS 3.4 18:41:43 10° ESE 18:45:18 22° ENE 18:48:52 10° NNE
NOAA 12 4.1 18:42:57 10° SSE 18:48:02 55° ENE 18:53:10 10° N
Cosmos 2333 Rocket 3.9 18:44:00 10° WSW 18:48:57 31° WNW 18:53:56 10° N
Cosmos 2219 Rocket 4.3 18:45:53 10° WSW 18:50:20 24° WNW 18:54:48 10° N
Centaur AC-119 4.0 18:48:59 10° SSW 18:50:38 16° SSE 18:52:10 13° SE
Cosmos 1626 2.0 18:48:53 10° S 18:52:34 65° E 18:56:18 10° NNE
Milstar 3 4.0 18:50:47 10° W 18:56:51 35° SSW 19:03:22 10° SE
SJ-6B 3.0 18:53:09 10° SSE 18:57:05 50° ENE 19:01:05 10° N
Nadezhda 4 Rocket 4.0 18:52:12 10° S 18:58:20 64° E 19:04:34 10° NNE
Aureole 2 Rocket 4.5 18:55:27 10° SW 18:58:44 31° WNW 19:02:17 10° N
Cosmos 1703 3.5 18:57:03 10° SSW 19:00:55 69° W 19:04:48 10° N
Cosmos 2242 Rocket 4.2 18:58:13 10° NNE 19:02:12 32° ENE 19:06:11 10° SE
Cosmos 2278 Rocket 3.1 18:58:47 10° NNW 19:04:16 51° WSW 19:09:43 10° S
FAST Rocket 4.1 19:02:38 10° SSW 19:05:21 70° W 19:06:50 22° N
Cosmos 1805 Rocket 4.1 19:02:30 10° SSW 19:06:54 62° W 19:11:20 10° N
Cosmos 1455 2.2 19:04:06 10° N 19:07:50 55° E 19:11:35 10° SSE
SL-19 R/B 4.4 19:05:52 10° SE 19:11:38 53° ENE 19:17:06 10° N
Lacrosse 4 Rocket 3.6 19:11:44 10° N 19:12:10 12° N 19:12:10 12° N
Cosmos 773 Rocket 3.8 19:10:36 10° S 19:15:43 76° ESE 19:19:20 20° NNE
FREGAT/IRIS 2.6 19:14:15 10° S 19:17:17 82° W 19:20:21 10° NNW
Cosmos 1092 Rocket 3.9 19:12:25 10° S 19:18:40 67° E 19:24:58 10° NNE
Sich 1 3.5 19:19:54 10° SSW 19:24:17 62° W 19:28:41 10° N
USA 215 3.2 19:21:36 28° ESE 19:25:08 62° NE 19:31:34 10° NW
Cosmos 2237 Rocket 4.5 19:21:36 10° WSW 19:25:41 20° WNW 19:29:47 10° N
Cosmos 1633 Rocket 3.6 19:27:26 10° SSW 19:31:46 58° W 19:36:07 10° N
SL-16 R/B 3.3 19:26:55 10° SW 19:32:14 41° WNW 19:37:34 10° N
Cosmos 2195 Rocket 4.3 19:37:52 10° S 19:43:55 69° E 19:46:13 39° NNE
OTV 4 3.7 19:50:09 10° WSW 19:50:55 12° SW 19:50:55 12° SW
CZ-3A R/B 2.9 19:55:58 10° NW 20:00:31 86° NE 20:01:30 63° SE
Spot 2 Rocket 3.8 19:56:21 10° S 20:01:21 64° WSW 20:06:22 10° NNW
Resurs 01 Rocket 2.8 19:57:59 10° S 20:03:49 36° NW 20:06:42 10° NNW
FENGYUN 3A 4.2 20:01:30 10° S 20:06:43 55° W 20:12:00 10° NNW
Cosmos 1655 Rocket 4.2 20:01:15 10° S 20:06:21 59° SSE 20:06:21 59° SSE
USA 229 DEB 4.3 20:02:48 10° SW 20:09:26 52° NW 20:12:13 33° N
Lacrosse 5 rocket 3.8 20:06:47 10° WNW 20:09:30 18° WSW 20:10:49 16° SW
USA 229 4.3 20:02:54 10° SW 20:09:32 52° NW 20:12:17 34° N
ALOS 4.0 20:18:25 10° SSW 20:22:31 31° W 20:26:39 10° NW
